This is the latest recevied weather packets stored in our database for station/object WA6ODQ-13. If no packets are shown the sender has not sent any weather packets the latest 10 day(s).
| Time | Temp. | Humidity | Pressure | Rain* | Wind** | Luminosity | Snow |
|---|---|---|---|---|---|---|---|
| 1778109217 | 27.22° C | 50% | 1015.7 hPa | 0 mm | - | 477 W/m² | - |
| 1778108914 | 27.78° C | 51% | 1015.8 hPa | 0 mm | - | 489 W/m² | - |
| 1778108611 | 27.22° C | 51% | 1016 hPa | 0 mm | - | 501 W/m² | - |
| 1778108307 | 26.67° C | 51% | 1016.1 hPa | 0 mm | - | 514 W/m² | - |
| 1778108005 | 26.67° C | 51% | 1015.9 hPa | 0 mm | - | 522 W/m² | - |
| 1778107701 | 26.67° C | 52% | 1016.1 hPa | 0 mm | - | 534 W/m² | - |
| 1778107398 | 27.78° C | 48% | 1016 hPa | 0 mm | - | 550 W/m² | - |
| 1778107095 | 27.78° C | 50% | 1016.1 hPa | 0 mm | - | 561 W/m² | - |
| 1778106790 | 28.33° C | 51% | 1016.2 hPa | 0 mm | - | 572 W/m² | - |
| 1778106487 | 27.78° C | 47% | 1016.2 hPa | 0 mm | - | 581 W/m² | - |
| 1778106182 | 26.67° C | 49% | 1016.6 hPa | 0 mm | - | 590 W/m² | - |
| 1778105880 | 26.11° C | 53% | 1016.4 hPa | 0 mm | - | 597 W/m² | - |
| 1778105578 | 26.11° C | 53% | 1016.5 hPa | 0 mm | - | 608 W/m² | - |
| 1778105275 | 26.67° C | 53% | 1016.9 hPa | 0 mm | - | 624 W/m² | - |
| 1778104970 | 26.11° C | 53% | 1016.9 hPa | 0 mm | - | 632 W/m² | - |
| 1778104667 | 26.67° C | 49% | 1017 hPa | 0 mm | - | 668 W/m² | - |
| 1778104363 | 25.56° C | 51% | 1017.1 hPa | 0 mm | - | 672 W/m² | - |
| 1778104059 | 26.11° C | 51% | 1017.2 hPa | 0 mm | - | 690 W/m² | - |
| 1778103757 | 26.67° C | 50% | 1017.1 hPa | 0 mm | - | 684 W/m² | - |
| 1778103455 | 26.11° C | 55% | 1017.2 hPa | 0 mm | - | 699 W/m² | - |
| 1778103151 | 25.56° C | 52% | 1017.3 hPa | 0 mm | - | 707 W/m² | - |
| 1778102849 | 26.11° C | 50% | 1017.4 hPa | 0 mm | - | 732 W/m² | - |
| 1778102544 | 25.56° C | 51% | 1017.4 hPa | 0 mm | - | 728 W/m² | - |
| 1778102240 | 25.56° C | 52% | 1017.4 hPa | 0 mm | - | 749 W/m² | - |
| 1778101936 | 25° C | 54% | 1017.4 hPa | 0 mm | - | 805 W/m² | - |
* Rain latest hour (hover to see other rain measurements)
** Current wind speed in m/s (hover to see current wind gust speed)